User: anonymous   Login
Location: Unspecified
(0.0000°N, 0.0000°E)
Time: 08:29:42
(UTC+00:00)
Language:

N. Korean satellite - Orbit

View from above orbital plane
View from above orbital plane
View from above satellite
View from above satellite

Ground track
Ground track

The orbit data is extracted from the following two-line orbital elements,

1 39026U 12072A   19289.77337195  .00001391  00000-0  52365-4 0  9992
2 39026  97.2153 289.0728 0038930  36.6265 323.7625 15.28068613379935
Epoch (UTC): 16 October 2019 18:33:39
Eccentricity: 0.0038930
inclination: 97.2153°
perigee height: 455 km
apogee height: 508 km
right ascension of ascending node: 289.0728°
argument of perigee: 36.6265°
revolutions per day: 15.28068613
mean anomaly at epoch: 323.7625°
orbit number at epoch: 37993

The dashed part of the orbit path shows where the satellite is in the earth's shadow,  

DLR